Terug naar catalogus

TITAN 3C TRANSTAGE DEB

LostHEO
NORAD 20760·DEBRIS·🇺🇸 United States

Gelanceerd Dec 21, 1965 vanaf Cape Canaveral Space Force Station

Loading…

Volgende Passages (komende 24 uur)

TLE

VerouderdSource: Space-Track

Epoch: Mar 14, 2026, 04:50 UTC

1 20760U 65108AE  26073.20171028 -.00000182  00000-0 -11916-2 0  9997
2 20760  27.4554   4.0470 6692182 234.2318 337.8733  2.84508125148648

Volg TITAN 3C TRANSTAGE DEB in realtime met AllMySat

Download on the App Store